Погода Нижний Тагил

Погода Нижний Тагил : погода сейчас, прогноз погоды и архив. Всё, что Вы хотите узнать о погоде Нижний Тагил!

Хотите узнать прогноз погоды Нижний Тагил? Тогда Вам сюда: Погода Нижний Тагил

Поиск расширенной информации на нашем сайте:

Полезная информация:

Другие новости

Новости СМИ2

Главная страница сайта

Новости сайта

03.07.2017

Напоминаем, что на нашем специализированном сайте Метеоцентр.Азия вы можете получить высокодетализированные автоматические прогнозы погоды по пунктам России, СНГ и мира в авиационном формате (включающие направление и скорость ветра, видимость, явления погоды, количество и форму облачности, нижнюю и верхнюю границу облачности).

Рекомендуем:

Погода Нижний Тагил - сегодня

Время (UTC), дата Ветер
(°,м/с) 
Видим.   Явления Облачность Т
(°С)
Тd
(°С)
f(%) Тe
(°С)
Pmin
(гПа)
dP
(гПа)
Po
(мм)
O2
(г/м3)
Тmin Tmax R s Состояние
почвы
09 15.09.19 230 (ЮЗ) 20000 м    10/8 600 м верхняя 
[Sc|Cc]
+20.6 +9.8 50 +22  1006.7  -0.9  733  273           
12 15.09.19 270 (З) 20000 м    10/5 600 м верхняя 
[Sc|Cc]
+21 +9.4 47 +22  1005.3  -1.4  732  272           
15 15.09.19 250 (З) 20000 м    10/5 600 м средняя 
[Sc|Ac As]
+16 +7.6 57 +16  1006.3  0.5  732  277    +21.5       
18 15.09.19 230 (ЮЗ) 20000 м    9/4 600 м средняя 
[Sc|Ac As]
+12.6 +9.5 81 +13  1006.8  0.2  732  280           
21 15.09.19 250 (З) 20000 м    8/8 600 м 
[Sc]
+11.2 +8.4 83 +11  1007  732  282           
00 16.09.19 тихо ()   20000 м    5/5 600 м 
[Sc]
+9.9 +6.7 80 +10  1006.7  -0.4  732  283           
03 16.09.19 тихо ()   20000 м    10/10 600 м кучево-дожд. 
[Cb cap]
+8.4 +6.9 90 +8  1007  0.1  732  285  +8.1        сухая 
06 16.09.19 200 (Ю) 20000 м  {ливн. осадки}  8/5 600 м кучево-дожд., средняя 
[Cb cap|Ac lent]
+9.2 +8.4 95 +9  1006.3  -0.7  731  284           
09 16.09.19 200 (Ю) 20000 м    8/8 600 м кучево-дожд. 
[Cb cap]
+12.9 +8.3 74 +13  1004.4  -1.3  730  280           
12 16.09.19 180 (Ю) 20000 м  {ливн. осадки}  8/4 600 м кучево-дожд., верхняя 
[Cb cap|Cc]
+11 +5.8 70 +11  1004  -0.6  730  282           
15 16.09.19 180 (Ю) 20000 м    9/9 600 м кучево-дожд. 
[Cb cap]
+8.1 +6.6 90 +9  1003.2  -1.2  729  284    +13.1     
18 16.09.19 180 (Ю) 20000 м    6/6 600 м 
[Sc]
+7.5 +5 84 +7  1001.9  -1.2  728  285           
21 16.09.19 180 (Ю) 4000 м  слаб. дождь  10/0 средняя 
[As op]
+7 +6.6 97 +7  1000.2  -1.8  727  284           
00 17.09.19 230 (ЮЗ) 20000 м  {дождь}  10/4 600 м средняя 
[Sc|As op]
+7.3 +5.7 90 +8  998.2  -1.9  725  284           
03 17.09.19 180 (Ю) 20000 м  в посл. час ливневой дождь  10/10 600 м кучево-дожд. 
[Cb cap]
+7.6 +7.4 99 +9  997.8  -0.3  725  283  +7      влажная 
06 17.09.19 200 (Ю) 20000 м  {ливн. осадки}  10/10 600 м кучево-дожд. 
[Cb cap]
+9.7 +8.7 93 +9  997.2  -0.4  725  280           
09 17.09.19 200 (Ю) 20000 м    10/10 600 м кучево-дожд. 
[Cb cap]
+11.4 +7 74 +11  997.7  0.8  725  279           
12 17.09.19 180 (Ю) 20000 м  {ливн. осадки}  8/8 600 м кучево-дожд. 
[Cb cap]
+11.2 +8.8 85 +11  999  1.1  726  280           
15 17.09.19 тихо ()   20000 м    4/4 600 м 
[Sc]
+9.6 +7.3 86 +10  999.3  0.2  726  281    +11.6  0.5     
18 17.09.19 180 (Ю) 20000 м    3/3 600 м кучево-дожд. 
[Cb cap]
+8.6 +6.9 89 +10  999.3  -0.1  726  283           
21 17.09.19 тихо ()   20000 м  {ливн. осадки}  4/0 средняя, верхняя 
[Ac lent|Ci fib]
+7.3 +7.1 99 +7  999.4  -0.1  726  284           
00 18.09.19 тихо ()   20000 м    5/3 600 м средняя 
[Sc|Ac lent]
+7.4 +6.5 94 +7  998.9  -0.5  726  284           
03 18.09.19 180 (Ю) 20000 м    8/8 600 м 
[Sc]
+7.8 +6.5 91 +8  999.1  0.3  726  283  +7.1    0.5    влажная 
06 18.09.19 230 (ЮЗ) 20000 м    8/8 600 м 
[Sc]
+11.8 +8.1 78 +12  998.5  -0.1  726  279           
09 18.09.19 250 (З) 20000 м    9/9 600 м кучево-дожд. 
[Cb cap]
+13.2 +6.1 62 +13  998.7  0.3  726  278           
Время (UTC), дата Ветер
(°,м/с) 
Видим.   Явления Облачность Т
(°С)
Тd
(°С)
f(%) Тe
(°С)
Pmin
(гПа)
dP
(гПа)
Po
(мм)
O2
(г/м3)
Тmin Tmax R s Состояние
почвы

Для получения пояснительной информации подведите курсор к названию столбца.

ПОГОДА Нижний Тагил - архив

Всё, что Вы хотите узнать о погоде Нижний Тагил - удобно и подробно!

Выберите нужную дату (начиная с 1 января 2018* года) и нажмите кнопку "Найти".
Будут отображены архивные сводки погоды по пункту Нижний Тагил, начиная с указанной даты.


Отображать данные в формате CSV (для использования в таблицах Excel)


Внимание! Наш архив погоды предназначен исключительно для личного некоммерческого использования в познавательных целях. Если Вам необходимы официальные справки о состоянии погоды (для производственных, юридических, коммерческих и т.п. целей), обращайтесь в органы Росгидромета.

*Примечание: данная дата относится к архиву по метеостанциям СССР (Россия, СНГ, Балтия).
Архив по метеостанциям Зарубежной Европы и Азии (кроме Китая) хранится 10 дней, по другим регионам земного шара (Китай, Африка, Америка, Австралия, Океания) - 1 день.

Нижний Тагил - район местоположения метеостанции


Название, широта, долгота, высота метеостанции:
Нижний Тагил 57.9°ш. 60.1°д. 260 м над ур. моря [Российская Федерация]

Дополнительная информация

В oтличие oт бoльшинства пoгoдных сайтoв мы публикуем пoдрoбную метеoинфoрмацию в детальнoм прoфессиoнальнoм фoрмате.

Характеристики температуры и влажнoсти вoздуха измеряются на высoте 2 м в тени вдали oт зданий и деревьев.
Скoрoсть ветра измеряется на высoте 10 м (на урoвне рoста челoвека скoрoсть ветра ниже в 1.5-2 раза). Если метеoстанция нахoдится в гoрoде или в лесу, тo скoрoсть ветра занижена на 2-4 м/с пo сравнению с oткрытым местoм. Скoрoсть ветра над акватoриями крупных рек и oзёр, а также на вершинах хoлмoв на 2-5 м/с выше, чем в oбычных услoвиях.
Атмoсфернoе давление в разных тoчках местнoсти мoжет значительнo oтличаться oт давления на метеoстанции, в зависимoсти oт услoвий рельефа (при пoдъёме на 10 м давление пoнижается примернo на 1 мм рт.ст.).